Time,TemperatureF,DewpointF,PressureIn,WindDirection,WindDirectionDegrees,WindSpeedMPH,WindSpeedGustMPH,Humidity,HourlyPrecipIn,Conditions,Clouds,dailyrainin,SoftwareType,DateUTC
2013-01-16 00:00:00,67.3,65.5,29.92,West,270,0.0,0.0,94,0.06,RA,,0.00,WeatherDisplay:10.37,2013-01-16 06:00:00,
2013-01-16 00:05:00,67.3,65.5,29.92,West,270,0.0,0.0,94,0.06,RA,,0.00,WeatherDisplay:10.37,2013-01-16 06:05:00,
2013-01-16 00:10:00,67.3,65.5,29.92,West,270,0.0,0.0,94,0.06,CLR,,0.00,WeatherDisplay:10.37,2013-01-16 06:10:00,
2013-01-16 00:15:00,67.1,65.3,29.92,West,270,0.0,0.0,94,0.12,RA,,0.06,WeatherDisplay:10.37,2013-01-16 06:15:00,
2013-01-16 00:20:00,67.1,65.3,29.92,West,270,0.0,0.0,94,0.20,RA,,0.14,WeatherDisplay:10.37,2013-01-16 06:20:00,
2013-01-16 00:25:00,67.3,65.5,29.92,West,270,0.0,0.0,94,0.20,RA,,0.14,WeatherDisplay:10.37,2013-01-16 06:25:00,
2013-01-16 00:30:00,67.3,65.5,29.92,West,270,0.0,0.0,94,0.20,,,0.14,WeatherDisplay:10.37,2013-01-16 06:30:00,
2013-01-16 00:35:00,67.3,65.5,29.91,West,270,0.0,0.0,94,0.20,CLR,,0.14,WeatherDisplay:10.37,2013-01-16 06:35:00,
2013-01-16 00:40:00,67.3,65.5,29.91,West,270,0.0,0.0,94,0.16,CLR,,0.14,WeatherDisplay:10.37,2013-01-16 06:40:00,
2013-01-16 00:45:00,67.3,65.5,29.91,West,270,0.0,0.0,94,0.16,CLR,,0.14,WeatherDisplay:10.37,2013-01-16 06:45:00,
2013-01-16 00:50:00,67.1,65.3,29.92,West,270,0.0,0.0,94,0.16,CLR,,0.14,WeatherDisplay:10.37,2013-01-16 06:50:00,
2013-01-16 00:55:00,67.1,65.3,29.92,WSW,248,0.0,0.0,94,0.16,CLR,,0.14,WeatherDisplay:10.37,2013-01-16 06:55:00,
2013-01-16 01:00:00,67.1,65.3,29.91,WSW,248,0.0,0.0,94,0.14,CLR,,0.14,WeatherDisplay:10.37,2013-01-16 07:00:00,
2013-01-16 01:05:00,67.1,65.3,29.92,SW,225,0.0,0.0,94,0.14,CLR,,0.14,WeatherDisplay:10.37,2013-01-16 07:05:00,
2013-01-16 01:10:00,66.9,65.1,29.92,SW,225,0.0,0.0,94,0.14,CLR,,0.14,WeatherDisplay:10.37,2013-01-16 07:10:00,
2013-01-16 01:15:00,66.9,65.1,29.92,SW,225,0.0,0.0,94,0.08,CLR,,0.14,WeatherDisplay:10.37,2013-01-16 07:15:00,
2013-01-16 01:20:00,66.9,65.1,29.92,WSW,248,1.3,1.3,94,0.02,RA,,0.16,WeatherDisplay:10.37,2013-01-16 07:20:00,
2013-01-16 01:25:00,66.9,65.1,29.92,WSW,248,0.0,0.9,94,0.02,RA,,0.16,WeatherDisplay:10.37,2013-01-16 07:25:00,
2013-01-16 01:30:00,66.7,65.0,29.92,WSW,248,0.0,0.0,94,0.02,,,0.16,WeatherDisplay:10.37,2013-01-16 07:30:00,
2013-01-16 01:35:00,66.7,65.0,29.92,NW,315,0.0,0.0,94,0.02,CLR,,0.16,WeatherDisplay:10.37,2013-01-16 07:35:00,
2013-01-16 01:40:00,66.4,64.6,29.92,NW,315,0.0,0.0,94,0.02,CLR,,0.16,WeatherDisplay:10.37,2013-01-16 07:40:00,
2013-01-16 01:45:00,66.0,64.2,29.92,NW,315,0.0,0.0,94,0.02,CLR,,0.16,WeatherDisplay:10.37,2013-01-16 07:45:00,
2013-01-16 01:50:00,65.8,64.1,29.92,NW,315,0.0,0.0,94,0.02,CLR,,0.16,WeatherDisplay:10.37,2013-01-16 07:50:00,
2013-01-16 01:55:00,65.5,63.7,29.92,NW,315,0.0,0.0,94,0.02,CLR,,0.16,WeatherDisplay:10.37,2013-01-16 07:55:00,
2013-01-16 02:00:00,65.3,63.5,29.92,NW,315,0.0,0.0,94,0.02,CLR,,0.16,WeatherDisplay:10.37,2013-01-16 08:00:00,
2013-01-16 02:05:00,65.1,63.3,29.92,NW,315,0.0,0.0,94,0.02,CLR,,0.16,WeatherDisplay:10.37,2013-01-16 08:05:00,
2013-01-16 02:10:00,64.9,63.2,29.92,NW,315,0.0,0.0,94,0.02,CLR,,0.16,WeatherDisplay:10.37,2013-01-16 08:10:00,
2013-01-16 02:15:00,64.8,63.0,29.92,NW,315,0.0,0.0,94,0.02,CLR,,0.16,WeatherDisplay:10.37,2013-01-16 08:15:00,
2013-01-16 02:20:00,64.8,63.0,29.92,NW,315,0.0,0.0,94,0.00,CLR,,0.16,WeatherDisplay:10.37,2013-01-16 08:20:00,
2013-01-16 02:25:00,64.6,62.8,29.92,NW,315,0.0,0.0,94,0.00,CLR,,0.16,WeatherDisplay:10.37,2013-01-16 08:25:00,
2013-01-16 02:30:00,64.2,62.5,29.92,NW,315,0.0,0.0,94,0.00,CLR,,0.16,WeatherDisplay:10.37,2013-01-16 08:30:00,
2013-01-16 02:35:00,64.2,62.5,29.92,NW,315,0.0,0.0,94,0.00,CLR,,0.16,WeatherDisplay:10.37,2013-01-16 08:35:00,
2013-01-16 02:40:00,64.2,62.5,29.93,NW,315,0.0,0.0,94,0.00,CLR,,0.16,WeatherDisplay:10.37,2013-01-16 08:40:00,
2013-01-16 02:45:00,63.7,61.6,29.93,NW,315,0.0,0.0,93,0.00,CLR,,0.16,WeatherDisplay:10.37,2013-01-16 08:45:00,
2013-01-16 02:50:00,63.5,61.4,29.92,NW,315,0.0,0.0,93,0.00,CLR,,0.16,WeatherDisplay:10.37,2013-01-16 08:50:00,
2013-01-16 02:55:00,63.1,61.1,29.92,NW,315,0.0,0.0,93,0.00,CLR,,0.16,WeatherDisplay:10.37,2013-01-16 08:55:00,
2013-01-16 03:00:00,62.8,60.7,29.92,NW,315,0.0,0.0,93,0.00,CLR,,0.16,WeatherDisplay:10.37,2013-01-16 09:00:00,
2013-01-16 03:05:00,62.8,60.7,29.92,NW,315,0.0,0.0,93,0.00,CLR,,0.16,WeatherDisplay:10.37,2013-01-16 09:05:00,
2013-01-16 03:10:00,62.4,60.4,29.92,NW,315,0.0,0.0,93,0.00,CLR,,0.16,WeatherDisplay:10.37,2013-01-16 09:10:00,
2013-01-16 03:15:00,62.2,60.2,29.92,NW,315,0.0,0.0,93,0.00,CLR,,0.16,WeatherDisplay:10.37,2013-01-16 09:15:00,
2013-01-16 03:20:00,62.1,60.0,29.92,NW,315,0.0,0.0,93,0.00,CLR,,0.16,WeatherDisplay:10.37,2013-01-16 09:20:00,
2013-01-16 03:25:00,61.7,59.7,29.92,NW,315,0.0,0.0,93,0.00,CLR,,0.16,WeatherDisplay:10.37,2013-01-16 09:25:00,
2013-01-16 03:30:00,61.5,59.5,29.93,NW,315,6.9,13.1,93,0.00,CLR,,0.16,WeatherDisplay:10.37,2013-01-16 09:30:00,
2013-01-16 03:36:00,61.3,59.3,29.93,WNW,292,0.0,0.0,93,0.00,CLR,,0.16,WeatherDisplay:10.37,2013-01-16 09:36:00,
2013-01-16 03:41:00,61.2,59.1,29.93,NW,315,0.0,0.0,93,0.00,CLR,,0.16,WeatherDisplay:10.37,2013-01-16 09:41:00,
2013-01-16 03:46:00,61.0,58.9,29.92,NNW,338,0.0,0.0,93,0.00,CLR,,0.16,WeatherDisplay:10.37,2013-01-16 09:46:00,
2013-01-16 03:51:00,60.6,58.6,29.93,NNW,338,0.0,0.0,93,0.00,CLR,,0.16,WeatherDisplay:10.37,2013-01-16 09:51:00,
2013-01-16 03:56:00,60.6,58.6,29.92,NNW,338,0.0,0.0,93,0.00,CLR,,0.16,WeatherDisplay:10.37,2013-01-16 09:56:00,
2013-01-16 04:01:00,60.4,58.4,29.92,NNW,338,0.0,0.0,93,0.00,CLR,,0.16,WeatherDisplay:10.37,2013-01-16 10:01:00,
2013-01-16 04:06:00,60.4,58.4,29.93,North,0,0.0,0.0,93,0.00,CLR,,0.16,WeatherDisplay:10.37,2013-01-16 10:06:00,
2013-01-16 04:11:00,60.1,58.0,29.93,North,0,0.0,0.0,93,0.00,CLR,,0.16,WeatherDisplay:10.37,2013-01-16 10:11:00,
2013-01-16 04:16:00,59.7,57.4,29.93,North,0,0.0,0.0,92,0.00,CLR,,0.16,WeatherDisplay:10.37,2013-01-16 10:16:00,
2013-01-16 04:21:00,59.7,57.4,29.93,North,0,0.0,0.0,92,0.00,CLR,,0.16,WeatherDisplay:10.37,2013-01-16 10:21:00,
2013-01-16 04:26:00,59.4,57.0,29.93,North,0,0.0,0.0,92,0.00,CLR,,0.16,WeatherDisplay:10.37,2013-01-16 10:26:00,
2013-01-16 04:31:00,59.0,56.7,29.93,North,0,0.0,0.0,92,0.00,CLR,,0.16,WeatherDisplay:10.37,2013-01-16 10:31:00,
2013-01-16 04:36:00,58.8,56.5,29.93,North,0,0.0,0.0,92,0.00,CLR,,0.16,WeatherDisplay:10.37,2013-01-16 10:36:00,
2013-01-16 04:41:00,58.8,56.5,29.93,NNE,22,0.0,0.0,92,0.00,CLR,,0.16,WeatherDisplay:10.37,2013-01-16 10:41:00,
2013-01-16 04:46:00,58.6,56.3,29.93,NE,45,0.0,0.0,92,0.00,CLR,,0.16,WeatherDisplay:10.37,2013-01-16 10:46:00,
2013-01-16 04:51:00,58.1,55.8,29.93,NE,45,1.3,2.6,92,0.00,CLR,,0.16,WeatherDisplay:10.37,2013-01-16 10:51:00,
2013-01-16 04:56:00,57.7,55.4,29.93,ENE,68,0.0,0.0,92,0.00,CLR,,0.16,WeatherDisplay:10.37,2013-01-16 10:56:00,
2013-01-16 05:01:00,57.4,55.1,29.93,ENE,68,0.0,0.0,92,0.00,CLR,,0.16,WeatherDisplay:10.37,2013-01-16 11:01:00,
2013-01-16 05:06:00,57.0,54.7,29.92,NE,45,0.0,0.0,92,0.00,CLR,,0.16,WeatherDisplay:10.37,2013-01-16 11:06:00,
2013-01-16 05:11:00,56.8,54.5,29.93,ENE,68,2.2,2.2,92,0.00,CLR,,0.16,WeatherDisplay:10.37,2013-01-16 11:11:00,
2013-01-16 05:16:00,56.5,54.2,29.93,ENE,68,0.0,0.0,92,0.00,CLR,,0.16,WeatherDisplay:10.37,2013-01-16 11:16:00,
2013-01-16 05:21:00,56.3,54.0,29.93,ENE,68,0.0,0.0,92,0.00,CLR,,0.16,WeatherDisplay:10.37,2013-01-16 11:21:00,
2013-01-16 05:26:00,56.1,53.8,29.94,NW,315,0.0,0.0,92,0.00,CLR,,0.16,WeatherDisplay:10.37,2013-01-16 11:26:00,
2013-01-16 05:31:00,55.9,53.6,29.94,NNE,22,4.6,8.0,92,0.00,CLR,,0.16,WeatherDisplay:10.37,2013-01-16 11:31:00,
2013-01-16 05:36:00,55.9,53.6,29.95,NNE,22,2.3,3.5,92,0.00,CLR,,0.16,WeatherDisplay:10.37,2013-01-16 11:36:00,
2013-01-16 05:41:00,55.6,53.3,29.95,NNW,338,0.0,0.5,92,0.00,CLR,,0.16,WeatherDisplay:10.37,2013-01-16 11:41:00,
2013-01-16 05:46:00,55.4,53.1,29.95,NE,45,3.5,6.7,92,0.00,CLR,,0.16,WeatherDisplay:10.37,2013-01-16 11:46:00,
2013-01-16 05:51:00,55.0,52.8,29.95,NE,45,0.0,0.0,92,0.00,CLR,,0.16,WeatherDisplay:10.37,2013-01-16 11:51:00,
2013-01-16 05:56:00,54.7,52.4,29.95,NNE,22,0.0,0.0,92,0.00,CLR,,0.16,WeatherDisplay:10.37,2013-01-16 11:56:00,
2013-01-16 06:01:00,54.7,52.4,29.95,NE,45,0.0,0.0,92,0.00,CLR,,0.16,WeatherDisplay:10.37,2013-01-16 12:01:00,
2013-01-16 06:06:00,54.3,52.0,29.96,NE,45,0.0,0.0,92,0.00,CLR,,0.16,WeatherDisplay:10.37,2013-01-16 12:06:00,
2013-01-16 06:11:00,54.1,51.9,29.95,ENE,68,7.1,7.1,92,0.00,CLR,,0.16,WeatherDisplay:10.37,2013-01-16 12:11:00,
2013-01-16 06:16:00,53.8,51.5,29.96,ENE,68,0.0,0.0,92,0.00,CLR,,0.16,WeatherDisplay:10.37,2013-01-16 12:16:00,
2013-01-16 06:21:00,53.2,51.0,29.96,NW,315,0.0,0.0,92,0.00,CLR,,0.16,WeatherDisplay:10.37,2013-01-16 12:21:00,
2013-01-16 06:26:00,53.2,51.0,29.96,NNW,338,0.0,0.0,92,0.00,CLR,,0.16,WeatherDisplay:10.37,2013-01-16 12:26:00,
2013-01-16 06:31:00,53.2,51.0,29.96,NNW,338,0.0,0.0,92,0.00,CLR,,0.16,WeatherDisplay:10.37,2013-01-16 12:31:00,
2013-01-16 06:36:00,52.9,50.6,29.96,ENE,68,5.8,11.4,92,0.00,CLR,,0.16,WeatherDisplay:10.37,2013-01-16 12:36:00,
2013-01-16 06:41:00,52.5,50.3,29.96,ENE,68,4.6,8.8,92,0.00,CLR,,0.16,WeatherDisplay:10.37,2013-01-16 12:41:00,
2013-01-16 06:46:00,52.3,50.1,29.96,ENE,68,0.0,0.0,92,0.00,CLR,,0.16,WeatherDisplay:10.37,2013-01-16 12:46:00,
2013-01-16 06:51:00,52.3,50.1,29.96,WNW,292,0.0,0.0,92,0.00,CLR,,0.16,WeatherDisplay:10.37,2013-01-16 12:51:00,
2013-01-16 06:56:00,52.2,49.9,29.96,NE,45,0.0,0.0,92,0.00,CLR,,0.16,WeatherDisplay:10.37,2013-01-16 12:56:00,
2013-01-16 07:01:00,52.2,49.9,29.96,NE,45,5.8,11.4,92,0.00,CLR,,0.16,WeatherDisplay:10.37,2013-01-16 13:01:00,
2013-01-16 07:06:00,52.0,49.7,29.96,ENE,68,6.6,0.0,92,0.00,CLR,,0.16,WeatherDisplay:10.37,2013-01-16 13:06:00,
2013-01-16 07:11:00,51.8,49.5,29.97,ENE,68,6.9,6.9,92,0.00,CLR,,0.16,WeatherDisplay:10.37,2013-01-16 13:11:00,
2013-01-16 07:16:00,51.4,49.2,29.97,ENE,68,1.1,0.0,92,0.00,CLR,,0.16,WeatherDisplay:10.37,2013-01-16 13:16:00,
2013-01-16 07:21:00,51.4,49.2,29.97,ENE,68,0.0,0.0,92,0.00,CLR,,0.16,WeatherDisplay:10.37,2013-01-16 13:21:00,
2013-01-16 07:26:00,51.3,49.3,29.97,ENE,68,0.0,0.0,93,0.00,CLR,,0.16,WeatherDisplay:10.37,2013-01-16 13:26:00,
2013-01-16 07:31:00,51.4,49.5,29.97,ENE,68,0.0,0.0,93,0.00,CLR,,0.16,WeatherDisplay:10.37,2013-01-16 13:31:00,
2013-01-16 07:36:00,51.4,49.5,29.97,ENE,68,0.0,0.0,93,0.00,CLR,,0.16,WeatherDisplay:10.37,2013-01-16 13:36:00,
2013-01-16 07:41:00,51.4,49.5,29.98,ENE,68,0.0,0.0,93,0.00,CLR,,0.16,WeatherDisplay:10.37,2013-01-16 13:41:00,
2013-01-16 07:46:00,51.6,49.7,29.99,ENE,68,0.0,0.0,93,0.00,CLR,,0.16,WeatherDisplay:10.37,2013-01-16 13:46:00,
2013-01-16 07:51:00,51.4,49.5,29.99,ENE,68,7.1,7.1,93,0.00,CLR,,0.16,WeatherDisplay:10.37,2013-01-16 13:51:00,
2013-01-16 07:56:00,51.3,49.3,29.98,ENE,68,0.0,0.0,93,0.00,CLR,,0.16,WeatherDisplay:10.37,2013-01-16 13:56:00,
2013-01-16 08:01:00,51.3,49.3,29.98,ENE,68,8.1,14.9,93,0.00,CLR,,0.16,WeatherDisplay:10.37,2013-01-16 14:01:00,
2013-01-16 08:06:00,50.9,48.9,29.98,ENE,68,0.0,0.0,93,0.00,CLR,,0.16,WeatherDisplay:10.37,2013-01-16 14:06:00,
2013-01-16 08:11:00,50.9,48.9,29.99,ENE,68,0.0,0.0,93,0.00,CLR,,0.16,WeatherDisplay:10.37,2013-01-16 14:11:00,
2013-01-16 08:16:00,50.9,48.9,29.99,ENE,68,0.0,0.0,93,0.00,CLR,,0.16,WeatherDisplay:10.37,2013-01-16 14:16:00,
2013-01-16 08:21:00,50.9,48.9,29.99,ENE,68,6.9,11.9,93,0.00,CLR,,0.16,WeatherDisplay:10.37,2013-01-16 14:21:00,
2013-01-16 08:26:00,50.9,48.9,29.99,South,180,0.0,0.0,93,0.00,CLR,,0.18,WeatherDisplay:10.37,2013-01-16 14:26:00,
2013-01-16 08:31:00,50.9,48.9,29.99,ESE,112,4.6,8.8,93,0.02,RA,,0.18,WeatherDisplay:10.37,2013-01-16 14:31:00,
2013-01-16 08:36:00,51.1,49.1,29.99,ESE,112,0.0,0.0,93,0.02,RA,,0.18,WeatherDisplay:10.37,2013-01-16 14:36:00,
2013-01-16 08:41:00,51.1,49.1,30.00,ESE,112,0.0,0.0,93,0.02,CLR,,0.18,WeatherDisplay:10.37,2013-01-16 14:41:00,
2013-01-16 08:46:00,51.1,49.1,30.00,ESE,112,0.0,0.0,93,0.02,CLR,,0.18,WeatherDisplay:10.37,2013-01-16 14:46:00,
2013-01-16 08:51:00,51.1,49.1,30.01,East,90,7.5,0.0,93,0.04,RA,,0.20,WeatherDisplay:10.37,2013-01-16 14:51:00,
2013-01-16 08:56:00,50.9,48.9,30.01,ENE,68,3.5,4.3,93,0.06,RA,,0.22,WeatherDisplay:10.37,2013-01-16 14:56:00,
2013-01-16 09:01:00,50.7,48.8,30.01,ENE,68,0.0,0.0,93,0.06,RA,,0.22,WeatherDisplay:10.37,2013-01-16 15:01:00,
2013-01-16 09:06:00,50.7,48.8,30.01,ENE,68,6.9,9.8,93,0.08,RA,,0.24,WeatherDisplay:10.37,2013-01-16 15:06:00,
2013-01-16 09:11:00,50.7,48.8,30.00,ENE,68,0.0,0.0,93,0.10,RA,,0.26,WeatherDisplay:10.37,2013-01-16 15:11:00,
2013-01-16 09:16:00,50.7,48.8,30.00,East,90,0.0,0.0,93,0.10,RA,,0.28,WeatherDisplay:10.37,2013-01-16 15:16:00,
2013-01-16 09:21:00,50.7,48.8,30.01,East,90,0.0,0.0,93,0.14,RA,,0.30,WeatherDisplay:10.37,2013-01-16 15:21:00,
2013-01-16 09:26:00,50.7,48.8,30.01,ENE,68,0.0,0.0,93,0.14,RA,,0.32,WeatherDisplay:10.37,2013-01-16 15:26:00,
2013-01-16 09:31:00,50.7,48.8,30.01,ENE,68,1.1,0.0,93,0.20,RA,,0.39,WeatherDisplay:10.37,2013-01-16 15:31:00,
2013-01-16 09:36:00,50.5,48.6,30.01,ENE,68,0.0,0.0,93,0.22,RA,,0.41,WeatherDisplay:10.37,2013-01-16 15:36:00,
2013-01-16 09:41:00,50.5,48.6,30.01,ENE,68,3.5,4.9,93,0.22,RA,,0.41,WeatherDisplay:10.37,2013-01-16 15:41:00,
2013-01-16 09:46:00,50.5,48.6,30.01,North,0,0.0,0.0,93,0.22,,,0.41,WeatherDisplay:10.37,2013-01-16 15:46:00,
2013-01-16 09:51:00,50.7,48.8,30.01,NW,315,0.0,0.0,93,0.20,CLR,,0.41,WeatherDisplay:10.37,2013-01-16 15:51:00,
2013-01-16 09:56:00,50.7,48.8,30.01,ENE,68,0.0,0.0,93,0.18,CLR,,0.41,WeatherDisplay:10.37,2013-01-16 15:56:00,
2013-01-16 10:01:00,50.7,48.8,30.01,ENE,68,8.4,16.6,93,0.18,CLR,,0.41,WeatherDisplay:10.37,2013-01-16 16:01:00,
2013-01-16 10:06:00,50.5,48.6,30.00,ENE,68,3.5,4.0,93,0.16,CLR,,0.41,WeatherDisplay:10.37,2013-01-16 16:06:00,
2013-01-16 10:11:00,50.7,48.8,30.00,ENE,68,0.0,0.0,93,0.14,CLR,,0.41,WeatherDisplay:10.37,2013-01-16 16:11:00,
2013-01-16 10:16:00,50.7,48.8,30.00,NE,45,4.9,9.6,93,0.14,CLR,,0.41,WeatherDisplay:10.37,2013-01-16 16:16:00,
2013-01-16 10:21:00,50.7,48.8,30.00,NE,45,2.3,3.4,93,0.10,CLR,,0.41,WeatherDisplay:10.37,2013-01-16 16:21:00,
2013-01-16 10:26:00,50.7,48.8,30.00,NE,45,2.3,2.5,93,0.10,CLR,,0.41,WeatherDisplay:10.37,2013-01-16 16:26:00,
2013-01-16 10:31:00,50.5,48.6,29.99,ENE,68,9.2,0.0,93,0.02,CLR,,0.41,WeatherDisplay:10.37,2013-01-16 16:31:00,
2013-01-16 10:36:00,50.7,48.8,29.99,NNE,22,0.0,0.0,93,0.00,CLR,,0.41,WeatherDisplay:10.37,2013-01-16 16:36:00,
2013-01-16 10:41:00,50.7,48.8,29.99,NNE,22,0.0,0.0,93,0.00,CLR,,0.41,WeatherDisplay:10.37,2013-01-16 16:41:00,
2013-01-16 10:46:00,50.5,48.6,29.99,NE,45,3.5,0.0,93,0.00,CLR,,0.41,WeatherDisplay:10.37,2013-01-16 16:46:00,
2013-01-16 10:51:00,50.4,48.4,29.99,ENE,68,6.9,12.5,93,0.00,CLR,,0.41,WeatherDisplay:10.37,2013-01-16 16:51:00,
2013-01-16 10:56:00,50.2,48.2,29.98,ENE,68,0.0,0.0,93,0.00,CLR,,0.41,WeatherDisplay:10.37,2013-01-16 16:56:00,
2013-01-16 11:01:00,50.4,48.4,29.98,ENE,68,0.0,0.0,93,0.00,CLR,,0.41,WeatherDisplay:10.37,2013-01-16 17:01:00,
2013-01-16 11:06:00,50.5,48.6,29.98,ENE,68,0.0,0.0,93,0.00,CLR,,0.41,WeatherDisplay:10.37,2013-01-16 17:06:00,
2013-01-16 11:11:00,50.7,48.8,29.98,ENE,68,0.0,0.0,93,0.00,CLR,,0.41,WeatherDisplay:10.37,2013-01-16 17:11:00,
2013-01-16 11:16:00,50.7,48.8,29.98,NE,45,8.1,0.0,93,0.00,CLR,,0.41,WeatherDisplay:10.37,2013-01-16 17:16:00,
2013-01-16 11:21:00,50.7,48.8,29.98,NE,45,2.3,5.3,93,0.00,CLR,,0.41,WeatherDisplay:10.37,2013-01-16 17:21:00,
2013-01-16 11:26:00,50.7,48.8,29.97,ENE,68,5.8,5.8,93,0.00,CLR,,0.41,WeatherDisplay:10.37,2013-01-16 17:26:00,
2013-01-16 11:31:00,50.7,48.8,29.98,NE,45,0.0,0.0,93,0.00,CLR,,0.41,WeatherDisplay:10.37,2013-01-16 17:31:00,
2013-01-16 11:36:00,50.5,48.6,29.97,ENE,68,4.6,8.4,93,0.00,CLR,,0.41,WeatherDisplay:10.37,2013-01-16 17:36:00,
2013-01-16 11:41:00,50.4,48.4,29.97,ENE,68,4.6,4.6,93,0.00,CLR,,0.41,WeatherDisplay:10.37,2013-01-16 17:41:00,
2013-01-16 11:46:00,50.4,48.4,29.97,NE,45,9.2,18.4,93,0.02,RA,,0.43,WeatherDisplay:10.37,2013-01-16 17:46:00,
2013-01-16 11:52:00,50.2,48.2,29.97,NE,45,6.9,13.8,93,0.02,RA,,0.43,WeatherDisplay:10.37,2013-01-16 17:52:00,
2013-01-16 11:57:00,50.2,48.2,29.96,NE,45,0.0,0.0,93,0.02,,,0.43,WeatherDisplay:10.37,2013-01-16 17:57:00,
2013-01-16 12:02:00,50.2,48.2,29.96,NE,45,0.0,0.0,93,0.02,CLR,,0.43,WeatherDisplay:10.37,2013-01-16 18:02:00,
2013-01-16 12:07:00,50.2,48.2,29.95,ENE,68,7.5,7.5,93,0.02,CLR,,0.43,WeatherDisplay:10.37,2013-01-16 18:07:00,
2013-01-16 12:12:00,50.4,48.4,29.96,ENE,68,0.0,0.0,93,0.02,CLR,,0.43,WeatherDisplay:10.37,2013-01-16 18:12:00,
2013-01-16 12:17:00,50.4,48.4,29.96,ENE,68,0.0,0.0,93,0.02,CLR,,0.43,WeatherDisplay:10.37,2013-01-16 18:17:00,
2013-01-16 12:22:00,50.5,48.6,29.96,ENE,68,2.3,4.2,93,0.02,CLR,,0.43,WeatherDisplay:10.37,2013-01-16 18:22:00,
2013-01-16 12:27:00,50.5,48.6,29.96,ENE,68,2.3,3.0,93,0.02,CLR,,0.43,WeatherDisplay:10.37,2013-01-16 18:27:00,
2013-01-16 12:32:00,50.4,48.4,29.95,ENE,68,4.0,7.9,93,0.02,CLR,,0.43,WeatherDisplay:10.37,2013-01-16 18:32:00,
2013-01-16 12:37:00,50.5,48.6,29.96,ENE,68,0.0,0.0,93,0.02,CLR,,0.43,WeatherDisplay:10.37,2013-01-16 18:37:00,
2013-01-16 12:42:00,50.5,48.6,29.95,ENE,68,0.0,0.0,93,0.02,CLR,,0.43,WeatherDisplay:10.37,2013-01-16 18:42:00,
2013-01-16 12:47:00,50.7,48.8,29.96,West,270,0.0,0.0,93,0.00,CLR,,0.43,WeatherDisplay:10.37,2013-01-16 18:47:00,
2013-01-16 12:52:00,50.9,48.9,29.96,NW,315,0.0,0.0,93,0.00,CLR,,0.43,WeatherDisplay:10.37,2013-01-16 18:52:00,
2013-01-16 12:57:00,50.9,48.9,29.97,West,270,0.0,0.0,93,0.00,CLR,,0.43,WeatherDisplay:10.37,2013-01-16 18:57:00,
2013-01-16 13:02:00,50.9,48.9,29.97,NW,315,0.0,0.0,93,0.00,CLR,,0.43,WeatherDisplay:10.37,2013-01-16 19:02:00,
2013-01-16 13:07:00,50.7,48.8,29.97,NW,315,2.3,3.3,93,0.00,CLR,,0.43,WeatherDisplay:10.37,2013-01-16 19:07:00,
2013-01-16 13:12:00,50.7,48.8,29.97,NW,315,0.0,0.0,93,0.00,CLR,,0.43,WeatherDisplay:10.37,2013-01-16 19:12:00,
2013-01-16 13:17:00,50.5,48.6,29.97,NE,45,1.1,0.0,93,0.00,CLR,,0.43,WeatherDisplay:10.37,2013-01-16 19:17:00,
2013-01-16 13:22:00,50.5,48.6,29.97,NNE,22,0.0,0.0,93,0.00,CLR,,0.43,WeatherDisplay:10.37,2013-01-16 19:22:00,
2013-01-16 13:27:00,50.2,48.2,29.97,NE,45,0.0,0.0,93,0.00,CLR,,0.43,WeatherDisplay:10.37,2013-01-16 19:27:00,
2013-01-16 13:32:00,50.2,47.9,29.97,WNW,292,0.0,0.0,92,0.00,CLR,,0.43,WeatherDisplay:10.37,2013-01-16 19:32:00,
2013-01-16 13:37:00,50.2,47.9,29.97,NW,315,0.0,0.0,92,0.00,CLR,,0.43,WeatherDisplay:10.37,2013-01-16 19:37:00,
2013-01-16 13:42:00,50.2,48.2,29.97,NW,315,0.0,0.0,93,0.00,CLR,,0.43,WeatherDisplay:10.37,2013-01-16 19:42:00,
2013-01-16 13:47:00,50.2,47.9,29.97,NW,315,0.0,0.0,92,0.00,CLR,,0.43,WeatherDisplay:10.37,2013-01-16 19:47:00,
2013-01-16 13:52:00,50.2,47.9,29.97,WNW,292,0.0,0.0,92,0.00,CLR,,0.43,WeatherDisplay:10.37,2013-01-16 19:52:00,
2013-01-16 13:57:00,50.0,47.8,29.97,NNE,22,0.0,0.0,92,0.00,CLR,,0.43,WeatherDisplay:10.37,2013-01-16 19:57:00,
2013-01-16 14:02:00,49.8,47.6,29.98,NNE,22,0.0,0.0,92,0.00,CLR,,0.43,WeatherDisplay:10.37,2013-01-16 20:02:00,
2013-01-16 14:07:00,49.8,47.6,29.98,NNW,338,2.7,2.7,92,0.00,CLR,,0.43,WeatherDisplay:10.37,2013-01-16 20:07:00,
2013-01-16 14:12:00,49.6,47.4,29.98,North,0,0.0,0.0,92,0.00,CLR,,0.43,WeatherDisplay:10.37,2013-01-16 20:12:00,
2013-01-16 14:17:00,49.6,47.4,29.97,NNW,338,5.8,11.4,92,0.00,CLR,,0.43,WeatherDisplay:10.37,2013-01-16 20:17:00,
2013-01-16 14:22:00,49.5,47.2,29.97,NW,315,2.3,4.4,92,0.00,CLR,,0.43,WeatherDisplay:10.37,2013-01-16 20:22:00,
2013-01-16 14:27:00,49.3,47.1,29.97,NNW,338,0.0,0.0,92,0.00,CLR,,0.43,WeatherDisplay:10.37,2013-01-16 20:27:00,
2013-01-16 14:32:00,49.3,47.1,29.97,NNW,338,0.0,0.0,92,0.00,CLR,,0.43,WeatherDisplay:10.37,2013-01-16 20:32:00,
2013-01-16 14:37:00,49.3,47.1,29.98,North,0,5.8,5.8,92,0.00,CLR,,0.43,WeatherDisplay:10.37,2013-01-16 20:37:00,
2013-01-16 14:42:00,49.3,47.1,29.97,North,0,0.0,0.0,92,0.00,CLR,,0.43,WeatherDisplay:10.37,2013-01-16 20:42:00,
2013-01-16 14:47:00,49.3,47.1,29.98,WNW,292,4.6,4.6,92,0.00,CLR,,0.43,WeatherDisplay:10.37,2013-01-16 20:47:00,
2013-01-16 14:52:00,49.1,46.9,29.98,North,0,0.0,0.0,92,0.00,CLR,,0.43,WeatherDisplay:10.37,2013-01-16 20:52:00,
2013-01-16 14:57:00,48.9,46.7,29.98,North,0,2.3,2.9,92,0.00,CLR,,0.43,WeatherDisplay:10.37,2013-01-16 20:57:00,
2013-01-16 15:02:00,48.9,46.7,29.98,NNE,22,0.0,0.0,92,0.00,CLR,,0.43,WeatherDisplay:10.37,2013-01-16 21:02:00,
2013-01-16 15:07:00,48.9,46.7,29.98,ENE,68,5.8,5.8,92,0.00,CLR,,0.43,WeatherDisplay:10.37,2013-01-16 21:07:00,
2013-01-16 15:12:00,48.7,46.5,29.98,NNW,338,0.0,0.0,92,0.00,CLR,,0.43,WeatherDisplay:10.37,2013-01-16 21:12:00,
2013-01-16 15:17:00,48.7,46.5,29.99,NW,315,1.3,2.6,92,0.00,CLR,,0.43,WeatherDisplay:10.37,2013-01-16 21:17:00,
2013-01-16 15:22:00,48.4,46.2,29.99,NNE,22,0.0,0.0,92,0.00,CLR,,0.43,WeatherDisplay:10.37,2013-01-16 21:22:00,
2013-01-16 15:27:00,48.2,46.0,29.99,ENE,68,0.0,0.0,92,0.00,CLR,,0.43,WeatherDisplay:10.37,2013-01-16 21:27:00,
2013-01-16 15:32:00,48.2,46.0,29.98,NE,45,0.0,0.0,92,0.00,CLR,,0.43,WeatherDisplay:10.37,2013-01-16 21:32:00,
2013-01-16 15:37:00,48.0,45.8,29.98,ENE,68,3.5,5.1,92,0.00,CLR,,0.43,WeatherDisplay:10.37,2013-01-16 21:37:00,
2013-01-16 15:42:00,48.0,45.5,29.98,ENE,68,0.0,0.0,91,0.00,CLR,,0.43,WeatherDisplay:10.37,2013-01-16 21:42:00,
2013-01-16 15:47:00,48.0,45.5,29.98,SW,225,2.3,2.6,91,0.00,CLR,,0.43,WeatherDisplay:10.37,2013-01-16 21:47:00,
2013-01-16 15:52:00,48.0,45.8,29.98,NE,45,0.0,0.0,92,0.00,CLR,,0.43,WeatherDisplay:10.37,2013-01-16 21:52:00,
2013-01-16 15:57:00,48.0,45.8,29.98,NW,315,2.3,2.3,92,0.00,CLR,,0.43,WeatherDisplay:10.37,2013-01-16 21:57:00,
2013-01-16 16:02:00,47.8,45.6,29.98,NE,45,9.2,17.5,92,0.00,CLR,,0.43,WeatherDisplay:10.37,2013-01-16 22:02:00,
2013-01-16 16:07:00,47.5,45.3,29.98,ENE,68,5.8,5.8,92,0.00,CLR,,0.43,WeatherDisplay:10.37,2013-01-16 22:07:00,
2013-01-16 16:12:00,47.5,45.3,29.98,ENE,68,2.3,3.5,92,0.00,CLR,,0.43,WeatherDisplay:10.37,2013-01-16 22:12:00,
2013-01-16 16:17:00,47.5,45.3,29.99,ENE,68,4.6,8.8,92,0.00,CLR,,0.43,WeatherDisplay:10.37,2013-01-16 22:17:00,
2013-01-16 16:22:00,47.3,45.1,29.99,NE,45,3.5,7.0,92,0.00,CLR,,0.43,WeatherDisplay:10.37,2013-01-16 22:22:00,
2013-01-16 16:27:00,47.1,44.9,29.99,ENE,68,5.8,11.5,92,0.00,CLR,,0.43,WeatherDisplay:10.37,2013-01-16 22:27:00,
2013-01-16 16:32:00,46.9,44.7,29.99,ENE,68,0.0,0.0,92,0.00,CLR,,0.43,WeatherDisplay:10.37,2013-01-16 22:32:00,
2013-01-16 16:37:00,47.1,44.9,30.00,ENE,68,0.0,0.0,92,0.00,CLR,,0.43,WeatherDisplay:10.37,2013-01-16 22:37:00,
2013-01-16 16:42:00,47.1,44.9,30.00,ENE,68,8.1,14.9,92,0.00,CLR,,0.43,WeatherDisplay:10.37,2013-01-16 22:42:00,
2013-01-16 16:47:00,47.1,44.9,30.00,ENE,68,0.0,0.0,92,0.00,CLR,,0.43,WeatherDisplay:10.37,2013-01-16 22:47:00,
2013-01-16 16:52:00,47.1,44.9,30.01,ENE,68,0.0,0.0,92,0.00,CLR,,0.43,WeatherDisplay:10.37,2013-01-16 22:52:00,
2013-01-16 16:57:00,47.3,45.1,30.01,NE,45,0.0,0.0,92,0.00,CLR,,0.43,WeatherDisplay:10.37,2013-01-16 22:57:00,
2013-01-16 17:02:00,47.5,45.3,30.02,NE,45,3.5,4.4,92,0.00,CLR,,0.43,WeatherDisplay:10.37,2013-01-16 23:02:00,
2013-01-16 17:07:00,47.5,45.3,30.01,NE,45,4.6,6.1,92,0.00,CLR,,0.43,WeatherDisplay:10.37,2013-01-16 23:07:00,
2013-01-16 17:12:00,47.5,45.3,30.01,NE,45,0.0,0.6,92,0.00,CLR,,0.43,WeatherDisplay:10.37,2013-01-16 23:12:00,
2013-01-16 17:17:00,47.3,45.1,30.01,NE,45,0.0,0.0,92,0.00,CLR,,0.43,WeatherDisplay:10.37,2013-01-16 23:17:00,
2013-01-16 17:22:00,47.5,45.3,30.01,NE,45,0.0,0.0,92,0.00,CLR,,0.43,WeatherDisplay:10.37,2013-01-16 23:22:00,
2013-01-16 17:27:00,47.7,45.5,30.00,NE,45,2.3,3.0,92,0.02,RA,,0.45,WeatherDisplay:10.37,2013-01-16 23:27:00,
2013-01-16 17:32:00,47.7,45.5,30.00,NE,45,0.0,0.0,92,0.02,RA,,0.45,WeatherDisplay:10.37,2013-01-16 23:32:00,
2013-01-16 17:37:00,47.3,45.1,30.00,ENE,68,3.5,4.3,92,0.02,,,0.45,WeatherDisplay:10.37,2013-01-16 23:37:00,
2013-01-16 17:42:00,47.1,44.9,29.99,ENE,68,2.7,5.3,92,0.02,CLR,,0.45,WeatherDisplay:10.37,2013-01-16 23:42:00,
2013-01-16 17:47:00,47.1,44.9,29.99,ENE,68,2.3,4.4,92,0.02,CLR,,0.45,WeatherDisplay:10.37,2013-01-16 23:47:00,
2013-01-16 17:52:00,47.1,44.9,29.99,ENE,68,0.0,0.0,92,0.02,CLR,,0.45,WeatherDisplay:10.37,2013-01-16 23:52:00,
2013-01-16 17:57:00,46.9,44.7,29.99,ENE,68,2.3,3.5,92,0.02,CLR,,0.45,WeatherDisplay:10.37,2013-01-16 23:57:00,
2013-01-16 18:02:00,46.9,44.7,29.99,ENE,68,7.1,14.0,92,0.02,CLR,,0.45,WeatherDisplay:10.37,2013-01-17 00:02:00,
2013-01-16 18:07:00,46.8,44.6,29.99,ENE,68,4.6,4.6,92,0.02,CLR,,0.45,WeatherDisplay:10.37,2013-01-17 00:07:00,
2013-01-16 18:12:00,46.8,44.8,30.00,ENE,68,4.6,4.6,93,0.02,CLR,,0.45,WeatherDisplay:10.37,2013-01-17 00:12:00,
2013-01-16 18:17:00,46.8,44.8,30.00,ENE,68,2.7,5.3,93,0.02,CLR,,0.45,WeatherDisplay:10.37,2013-01-17 00:17:00,
2013-01-16 18:22:00,46.9,45.0,30.00,ENE,68,1.1,1.5,93,0.02,CLR,,0.45,WeatherDisplay:10.37,2013-01-17 00:22:00,
2013-01-16 18:27:00,46.9,45.0,30.01,ENE,68,0.0,0.0,93,0.00,CLR,,0.45,WeatherDisplay:10.37,2013-01-17 00:27:00,
2013-01-16 18:32:00,46.9,45.0,30.01,ENE,68,1.1,1.8,93,0.00,CLR,,0.45,WeatherDisplay:10.37,2013-01-17 00:32:00,
2013-01-16 18:37:00,46.9,45.0,30.00,ENE,68,2.3,3.9,93,0.00,CLR,,0.45,WeatherDisplay:10.37,2013-01-17 00:37:00,
2013-01-16 18:42:00,46.9,45.0,30.00,ENE,68,0.0,1.8,93,0.00,CLR,,0.45,WeatherDisplay:10.37,2013-01-17 00:42:00,
2013-01-16 18:47:00,46.9,45.0,30.00,ENE,68,9.2,18.4,93,0.00,CLR,,0.45,WeatherDisplay:10.37,2013-01-17 00:47:00,
2013-01-16 18:52:00,46.8,44.8,30.00,ENE,68,3.5,4.4,93,0.00,CLR,,0.45,WeatherDisplay:10.37,2013-01-17 00:52:00,
2013-01-16 18:57:00,46.8,44.8,30.00,ENE,68,0.0,0.0,93,0.02,RA,,0.47,WeatherDisplay:10.37,2013-01-17 00:57:00,
2013-01-16 19:02:00,46.8,44.8,30.00,ENE,68,0.0,0.0,93,0.02,RA,,0.47,WeatherDisplay:10.37,2013-01-17 01:02:00,
2013-01-16 19:07:00,46.9,45.0,30.00,ENE,68,2.3,3.0,93,0.02,CLR,,0.47,WeatherDisplay:10.37,2013-01-17 01:07:00,
2013-01-16 19:12:00,47.1,45.2,30.00,ENE,68,0.0,0.0,93,0.02,CLR,,0.47,WeatherDisplay:10.37,2013-01-17 01:12:00,
2013-01-16 19:17:00,47.1,45.2,30.01,ENE,68,0.0,0.0,93,0.02,CLR,,0.47,WeatherDisplay:10.37,2013-01-17 01:17:00,
2013-01-16 19:22:00,47.1,45.2,30.01,ENE,68,0.0,0.0,93,0.02,CLR,,0.47,WeatherDisplay:10.37,2013-01-17 01:22:00,
2013-01-16 19:27:00,47.1,45.2,30.01,ESE,112,0.0,0.0,93,0.02,CLR,,0.47,WeatherDisplay:10.37,2013-01-17 01:27:00,
2013-01-16 19:32:00,47.1,45.2,30.01,ESE,112,1.1,1.8,93,0.02,CLR,,0.47,WeatherDisplay:10.37,2013-01-17 01:32:00,
2013-01-16 19:37:00,47.1,45.2,30.01,SE,135,0.0,0.0,93,0.02,CLR,,0.47,WeatherDisplay:10.37,2013-01-17 01:37:00,
2013-01-16 19:42:00,47.1,45.2,30.01,ENE,68,0.0,0.0,93,0.02,CLR,,0.47,WeatherDisplay:10.37,2013-01-17 01:42:00,
2013-01-16 19:47:00,47.1,45.2,30.01,ENE,68,0.0,0.0,93,0.02,CLR,,0.47,WeatherDisplay:10.37,2013-01-17 01:47:00,
2013-01-16 19:52:00,47.1,45.2,30.01,ENE,68,0.0,0.0,93,0.02,CLR,,0.47,WeatherDisplay:10.37,2013-01-17 01:52:00,
2013-01-16 19:57:00,47.1,45.2,30.01,ENE,68,0.0,0.0,93,0.00,CLR,,0.47,WeatherDisplay:10.37,2013-01-17 01:57:00,
2013-01-16 20:02:00,47.1,45.2,30.01,WNW,292,0.0,0.0,93,0.00,CLR,,0.47,WeatherDisplay:10.37,2013-01-17 02:02:00,
2013-01-16 20:07:00,47.1,45.2,30.01,WNW,292,0.0,0.0,93,0.00,CLR,,0.47,WeatherDisplay:10.37,2013-01-17 02:07:00,
2013-01-16 20:12:00,47.1,45.2,30.01,WNW,292,0.0,0.0,93,0.00,CLR,,0.47,WeatherDisplay:10.37,2013-01-17 02:12:00,
2013-01-16 20:17:00,47.1,45.2,30.02,WNW,292,0.0,0.0,93,0.00,CLR,,0.47,WeatherDisplay:10.37,2013-01-17 02:17:00,
2013-01-16 20:22:00,46.9,45.0,30.02,West,270,0.0,0.0,93,0.00,CLR,,0.47,WeatherDisplay:10.37,2013-01-17 02:22:00,
2013-01-16 20:27:00,46.9,45.0,30.02,West,270,0.0,0.0,93,0.00,CLR,,0.47,WeatherDisplay:10.37,2013-01-17 02:27:00,
2013-01-16 20:32:00,46.9,45.0,30.01,WSW,248,0.0,0.0,93,0.00,CLR,,0.47,WeatherDisplay:10.37,2013-01-17 02:32:00,
2013-01-16 20:37:00,46.9,45.0,30.02,NW,315,0.0,0.0,93,0.00,CLR,,0.47,WeatherDisplay:10.37,2013-01-17 02:37:00,
2013-01-16 20:42:00,46.9,45.0,30.02,West,270,0.0,0.0,93,0.00,CLR,,0.47,WeatherDisplay:10.37,2013-01-17 02:42:00,
2013-01-16 20:47:00,46.9,45.0,30.02,West,270,0.0,0.0,93,0.00,CLR,,0.47,WeatherDisplay:10.37,2013-01-17 02:47:00,
2013-01-16 20:52:00,46.9,45.0,30.02,NNE,22,0.0,0.0,93,0.00,CLR,,0.47,WeatherDisplay:10.37,2013-01-17 02:52:00,
2013-01-16 20:57:00,46.9,45.0,30.02,NW,315,0.0,0.0,93,0.00,CLR,,0.47,WeatherDisplay:10.37,2013-01-17 02:57:00,
2013-01-16 21:02:00,46.8,44.8,30.02,NW,315,0.0,0.0,93,0.00,CLR,,0.47,WeatherDisplay:10.37,2013-01-17 03:02:00,
2013-01-16 21:07:00,46.8,44.8,30.02,NW,315,0.0,0.0,93,0.00,CLR,,0.47,WeatherDisplay:10.37,2013-01-17 03:07:00,
2013-01-16 21:12:00,46.8,44.8,30.03,WSW,248,0.0,0.0,93,0.00,CLR,,0.47,WeatherDisplay:10.37,2013-01-17 03:12:00,
2013-01-16 21:17:00,46.8,44.8,30.02,NNE,22,0.0,0.0,93,0.00,CLR,,0.47,WeatherDisplay:10.37,2013-01-17 03:17:00,
2013-01-16 21:22:00,46.6,44.7,30.03,NW,315,0.0,0.0,93,0.00,CLR,,0.47,WeatherDisplay:10.37,2013-01-17 03:22:00,
2013-01-16 21:27:00,46.6,44.7,30.03,NW,315,0.0,0.0,93,0.00,CLR,,0.47,WeatherDisplay:10.37,2013-01-17 03:27:00,
2013-01-16 21:32:00,46.6,44.7,30.03,NW,315,0.0,0.0,93,0.00,CLR,,0.47,WeatherDisplay:10.37,2013-01-17 03:32:00,
2013-01-16 21:37:00,46.6,44.7,30.03,West,270,0.0,0.0,93,0.00,CLR,,0.47,WeatherDisplay:10.37,2013-01-17 03:37:00,
2013-01-16 21:42:00,46.6,44.7,30.03,WNW,292,0.0,0.0,93,0.00,CLR,,0.47,WeatherDisplay:10.37,2013-01-17 03:42:00,
2013-01-16 21:48:00,46.6,44.7,30.03,West,270,0.0,0.0,93,0.00,CLR,,0.47,WeatherDisplay:10.37,2013-01-17 03:48:00,
2013-01-16 21:53:00,46.2,44.3,30.03,WNW,292,0.0,0.0,93,0.00,CLR,,0.47,WeatherDisplay:10.37,2013-01-17 03:53:00,
2013-01-16 21:58:00,46.2,44.3,30.02,NNE,22,0.0,0.0,93,0.00,CLR,,0.47,WeatherDisplay:10.37,2013-01-17 03:58:00,
2013-01-16 22:03:00,46.2,44.3,30.02,NW,315,0.0,0.0,93,0.00,CLR,,0.47,WeatherDisplay:10.37,2013-01-17 04:03:00,
2013-01-16 22:08:00,46.2,44.3,30.02,NW,315,0.0,0.4,93,0.00,CLR,,0.47,WeatherDisplay:10.37,2013-01-17 04:08:00,
2013-01-16 22:13:00,46.2,44.3,30.02,NW,315,0.0,0.0,93,0.00,CLR,,0.47,WeatherDisplay:10.37,2013-01-17 04:13:00,
2013-01-16 22:18:00,46.2,44.3,30.02,SW,225,0.0,0.0,93,0.00,CLR,,0.47,WeatherDisplay:10.37,2013-01-17 04:18:00,
2013-01-16 22:23:00,46.2,44.3,30.02,NW,315,0.0,0.0,93,0.00,CLR,,0.47,WeatherDisplay:10.37,2013-01-17 04:23:00,
2013-01-16 22:28:00,46.0,44.1,30.02,NW,315,0.0,0.0,93,0.00,CLR,,0.47,WeatherDisplay:10.37,2013-01-17 04:28:00,
2013-01-16 22:33:00,46.0,44.1,30.03,WNW,292,0.0,0.0,93,0.00,CLR,,0.47,WeatherDisplay:10.37,2013-01-17 04:33:00,
2013-01-16 22:38:00,46.0,44.1,30.03,West,270,0.0,0.0,93,0.00,CLR,,0.47,WeatherDisplay:10.37,2013-01-17 04:38:00,
2013-01-16 22:43:00,46.0,44.1,30.03,West,270,0.0,0.0,93,0.00,CLR,,0.47,WeatherDisplay:10.37,2013-01-17 04:43:00,
2013-01-16 22:48:00,46.0,44.1,30.03,NNE,22,0.0,0.0,93,0.00,CLR,,0.47,WeatherDisplay:10.37,2013-01-17 04:48:00,
2013-01-16 22:53:00,45.7,43.8,30.04,West,270,1.1,1.8,93,0.00,CLR,,0.47,WeatherDisplay:10.37,2013-01-17 04:53:00,
2013-01-16 22:58:00,45.7,43.8,30.04,NW,315,2.3,2.5,93,0.00,CLR,,0.47,WeatherDisplay:10.37,2013-01-17 04:58:00,
2013-01-16 23:00:00,45.7,43.8,30.03,North,0,3.5,4.8,93,0.00,CLR,,0.47,WeatherDisplay:10.37,2013-01-17 05:00:00,
2013-01-16 23:02:00,45.5,43.3,30.03,NNW,338,3.5,3.6,92,0.00,CLR,,0.47,WeatherDisplay:10.37,2013-01-17 05:02:00,
2013-01-16 23:03:00,45.5,43.3,30.03,NNW,338,3.5,3.5,92,0.00,CLR,,0.47,WeatherDisplay:10.37,2013-01-17 05:03:00,
2013-01-16 23:08:00,45.5,43.3,30.04,SW,225,0.0,0.0,92,0.00,CLR,,0.47,WeatherDisplay:10.37,2013-01-17 05:08:00,
2013-01-16 23:13:00,45.3,43.1,30.04,WNW,292,0.0,0.0,92,0.00,CLR,,0.47,WeatherDisplay:10.37,2013-01-17 05:13:00,
2013-01-16 23:18:00,45.3,43.1,30.04,NNW,338,0.0,0.0,92,0.00,CLR,,0.47,WeatherDisplay:10.37,2013-01-17 05:18:00,
2013-01-16 23:23:00,45.3,43.1,30.03,NW,315,0.0,0.0,92,0.00,CLR,,0.47,WeatherDisplay:10.37,2013-01-17 05:23:00,
2013-01-16 23:28:00,45.1,43.0,30.03,NW,315,0.0,0.0,92,0.00,CLR,,0.47,WeatherDisplay:10.37,2013-01-17 05:28:00,
2013-01-16 23:33:00,45.1,43.0,30.03,WSW,248,0.0,0.0,92,0.00,CLR,,0.47,WeatherDisplay:10.37,2013-01-17 05:33:00,
2013-01-16 23:38:00,45.1,43.0,30.03,NNW,338,0.0,0.0,92,0.00,CLR,,0.47,WeatherDisplay:10.37,2013-01-17 05:38:00,
2013-01-16 23:43:00,45.1,43.0,30.03,North,0,0.0,0.0,92,0.00,CLR,,0.47,WeatherDisplay:10.37,2013-01-17 05:43:00,
2013-01-16 23:48:00,45.1,43.0,30.03,WSW,248,4.0,7.4,92,0.00,CLR,,0.47,WeatherDisplay:10.37,2013-01-17 05:48:00,
2013-01-16 23:53:00,45.1,43.0,30.03,NW,315,0.0,0.0,92,0.00,CLR,,0.47,WeatherDisplay:10.37,2013-01-17 05:53:00,
2013-01-16 23:58:00,45.1,43.0,30.02,SE,135,0.0,0.0,92,0.00,CLR,,0.47,WeatherDisplay:10.37,2013-01-17 05:58:00,